EFMA

Mariehamn

Airport
ICAO code
EFMA
Summary
ICAO Region
EUR
ICAO Territory
Location

Jomala, Aland,

Coordinates
60° 7' 25" N , 19° 53' 59" E
KCC
Airport GND
Aircraft Ground De/Anti Icing
Airport RE
Landing on Contaminated Runways
Metar
EFMA 192120Z AUTO 32004KT 290V350 CAVOK 14/09 Q1008

Description

Regional airport on the island of Åland, an autonomous, Swedish speaking region of Finland.

Climatology

Humid Continental climate (Köppen climate classification Dfb) - Variable weather patterns and a large seasonal temperature variance. Summers are often warm and humid with frequent thunderstorms and winters can be very cold with frequent snowfall and persistent snow cover.

Runways

Designator Length Width Surface Rops
3/21 1903 60 ASP Yes/Yes

Airport map

Aerial View

SKYbrary Partners:

Safety knowledge contributed by: